Regional Weather Roundup
Issued by NWS State College, PA

Home | Current Version | Previous Version | Text Only | Print | Product List | Glossary On
Versions: 1 2 3 4 5 6 7 8 9 10 11 12 13 14 15 16 17 18 19 20 21 22 23 24 25 26 27 28 29 30 31 32 33 34 35 36 37 38 39 40 41 42 43 44 45 46 47 48 49 50
000
ASUS41 KCTP 232110
RWRCTP

REGIONAL WEATHER ROUNDUP
NATIONAL WEATHER SERVICE STATE COLLEGE PA
500 PM EDT SAT JUL 23 2016

Note: "fair" indicates few or no clouds below 12,000 feet with no
significant weather and/or obstructions to visibility.

* = STATION THAT DOES NOT REPORT PRECIPITATION /E.G. RAIN...SNOW...ETC/
    THUNDER OR FOG.

PAZ002>004-007>009-013>016-020>023-029>032-232200-
WESTERN PENNSYLVANIA

CITY           SKY/WX    TMP DP  RH WIND       PRES   REMARKS
ERIE           SUNNY     87  62  43 W7        29.97F
MEADVILLE      SUNNY     85  58  39 NW6       30.01S
FRANKLIN*      MOSUNNY   88  63  42 NW8       30.02F
NEW CASTLE     FAIR      92  60  34 NE9       29.97F
BEAVER COUNTY  MOSUNNY   91  63  38 N6        29.97F
BUTLER*        MOSUNNY   90  63  40 N8        30.00F
PITTSBURGH INT MOSUNNY   87  67  51 S7        29.96F
PITTSBURGH     CLOUDY    82  69  64 SW8       29.97F
INDIANA*       SUNNY     91  61  35 N12G17    30.00F
LATROBE        MOSUNNY   84  68  58 S6        29.99F
WASHINGTON CO* MOSUNNY   91  70  49 W6        29.97F HX  97
$$

PAZ004>006-010>012-017>019-024>028-033>037-041-042-045-046-049>053-232200-
CENTRAL PENNSYLVANIA

CITY           SKY/WX    TMP DP  RH WIND       PRES   REMARKS
BRADFORD       SUNNY     85  53  33 W15G23    30.01F
DUBOIS         SUNNY     90  55  30 NW13G20   29.99F
CLEARFIELD     SUNNY     93  54  26 N10       29.97F
JOHNSTOWN      CLOUDY    79  69  71 NW5       30.03F
ALTOONA        SUNNY     92  63  38 W13       29.97F
STATE COLLEGE  SUNNY     93  54  26 NW12G22   29.93S
WILLIAMSPORT   MOSUNNY   98  49  18 NW12G22   29.83F HX  95
SELINSGROVE    SUNNY     97  57  26 NW8G17    29.85F HX  96
FT INDIANTOWN  SUNNY     96  58  27 W13G18    29.84F HX  95
CAPITAL CITY   MOSUNNY   96  64  34 W10       29.84F HX  98
HARRISBURG     CLOUDY    96  68  39 W14       29.82F HX 101
YORK           SUNNY     93  72  50 SW12G18   29.85F HX 101
$$

PAZ038>040-043-044-047-048-054-055-060>062-067>071-232200-
EASTERN PENNSYLVANIA

CITY           SKY/WX    TMP DP  RH WIND       PRES   REMARKS
SCRANTON       SUNNY     94  51  23 NW13G24   29.86F
MOUNT POCONO   SUNNY     87 N/A N/A NW14G24   29.92F
ALLENTOWN      SUNNY     95  58  28 W10G20    29.83F
QUAKERTOWN*    PTCLDY    95  59  30 CALM      29.85F
READING        MOSUNNY   98  59  27 NW14      29.82F HX  98
LANCASTER      CLOUDY    83  65  54 W13G21    29.85S
COATESVILLE    CLOUDY    81  66  61 VRB6      29.88S
POTTSTOWN      MOSUNNY   94  62  34 NW9G17    29.84F
BLUE BELL      PTSUNNY   79  72  78 SW10G18   29.85S
DOYLESTOWN     MOSUNNY   95  56  26 VRB7      29.82F
WILLOW GROVE   NOT AVBL
NORTH PHILA    PTSUNNY   87  71  58 W8        29.83F
PHILADELPHIA   PTSUNNY   95  70  44 SW18      29.81F THUNDER HX 101
$$




USA.gov is the U.S. government's official web portal to all federal, state and local government web resources and services.